Find Kuiper-00092

NORAD ID: 64837 Int'l Des: 2025-151 Owner: KUIP Country: US Constellation: amazon-leo operational
LEOCIRCULAR

当前视图

正在加载3D地球...

关于 Kuiper-00092

正在加载描述...

即将过境

Passes for default location (London). Set your location on the main map for personalized predictions.

高度历史

Loading altitude history...

两行轨道根数

1 64837U 25151X 26149.57031002 .00002137 00000-0 30925-3 0 9997
2 64837 51.9007 292.9466 0000850 85.4764 274.6295 14.79934273 48632
Epoch: May 29, 2026 • Age: 12 hours

当前状态

高度 634.2 km
速度 7.55 km/s
星下点 47.75°N, 141.1°E
发射日期 Jul 16, 2025
运行时间 0.8 years
类型 internet

技术详情

分类 Payload
质量 490.00 kg
干质量 490.00 kg
总质量 490.00 kg
长度 1.80 m
直径 0.70 m
跨度 5.00 m
形状 Box + 2 pan
制造商 KUIP
平台类型 Kuiper
阶段状态 In Orbit
所有者/国家 KUIP/US

Most Searched